User: anonymous   Login
Location: Oshawa
(43.9000°N, 78.8670°W)
Time: 23:37:02
(UTC-04:00)
Language:

Cosmos 1953 Rocket - Orbit

View from above orbital plane
View from above orbital plane
View from above satellite
View from above satellite

Ground track
Ground track

The orbit data is extracted from the following two-line orbital elements,

1 19211U 88050B   15145.49131285  .00000200  00000-0  21693-4 0  9991
2 19211 082.5264 187.2217 0023568 081.4775 041.8092 14.82745501455091
Epoch (UTC): 25 May 2015 11:47:29
Eccentricity: 0.0023568
inclination: 82.5264°
perigee height: 604 km
apogee height: 637 km
right ascension of ascending node: 187.2217°
argument of perigee: 81.4775°
revolutions per day: 14.82745501
mean anomaly at epoch: 41.8092°
orbit number at epoch: 45509

The dashed part of the orbit path shows where the satellite is in the earth's shadow,  

DLR